This is the latest recevied weather packets stored in our database for station/object N0HOT. If no packets are shown the sender has not sent any weather packets the latest 10 day(s).
| Time | Temp. | Humidity | Pressure | Rain* | Wind** | Luminosity | Snow |
|---|---|---|---|---|---|---|---|
| 1788199128 | 33.33° C | 58% | 1010.5 hPa | 0 mm | - | 337 W/m² | - |
| 1788198824 | 33.33° C | 56% | 1010.5 hPa | 0 mm | - | 299 W/m² | - |
| 1788198521 | 32.78° C | 56% | 1010.5 hPa | 0 mm | - | 613 W/m² | - |
| 1788198216 | 32.78° C | 55% | 1010.5 hPa | 0 mm | - | 517 W/m² | - |
| 1788197915 | 32.78° C | 58% | 1010.8 hPa | 0 mm | - | 537 W/m² | - |
| 1788197615 | 32.22° C | 57% | 1010.5 hPa | 0 mm | - | 556 W/m² | - |
| 1788197310 | 32.22° C | 58% | 1010.5 hPa | 0 mm | - | 559 W/m² | - |
| 1788197005 | 32.22° C | 58% | 1010.5 hPa | 0 mm | - | 459 W/m² | - |
| 1788196705 | 31.67° C | 59% | 1010.8 hPa | 0 mm | - | 488 W/m² | - |
| 1788196401 | 31.67° C | 57% | 1010.8 hPa | 0 mm | - | 573 W/m² | - |
| 1788196098 | 31.67° C | 59% | 1010.8 hPa | 0 mm | - | 697 W/m² | - |
| 1788195794 | 31.11° C | 60% | 1010.8 hPa | 0 mm | - | 655 W/m² | - |
| 1788195490 | 31.11° C | 62% | 1010.8 hPa | 0 mm | - | 716 W/m² | - |
| 1788195187 | 30.56° C | 61% | 1010.8 hPa | 0 mm | - | 560 W/m² | - |
| 1788194882 | 30.56° C | 63% | 1010.8 hPa | 0 mm | - | 395 W/m² | - |
| 1788194578 | 30° C | 61% | 1010.8 hPa | 0 mm | - | 222 W/m² | - |
| 1788194273 | 30° C | 65% | 1010.5 hPa | 0 mm | - | 541 W/m² | - |
| 1788193969 | 30° C | 65% | 1010.8 hPa | 0 mm | - | 337 W/m² | - |
| 1788193668 | 30° C | 65% | 1010.8 hPa | 0 mm | - | 368 W/m² | - |
| 1788193362 | 29.44° C | 62% | 1010.5 hPa | 0 mm | - | 190 W/m² | - |
| 1788193056 | 29.44° C | 63% | 1010.5 hPa | 0 mm | - | 596 W/m² | - |
| 1788192753 | 28.89° C | 61% | 1010.8 hPa | 0 mm | - | 604 W/m² | - |
| 1788192453 | 28.89° C | 63% | 1010.8 hPa | 0 mm | - | 589 W/m² | - |
| 1788192148 | 28.33° C | 62% | 1010.8 hPa | 0 mm | - | 454 W/m² | - |
| 1788191847 | 27.78° C | 66% | 1010.5 hPa | 0 mm | - | 334 W/m² | - |
* Rain latest hour (hover to see other rain measurements)
** Current wind speed in m/s (hover to see current wind gust speed)